Location: Alulod
(14.2076°N, 120.8898°E)
Time: 03:20:42
(UTC+00:00)

Cosmos 1626 Rocket - Pass Details

Date: 13 December 2025
Orbit: 596 x 625 km, 82.5° (Epoch: 15 January)

Event Time Altitude Azimuth Distance (km) Brightness Sun altitude
Rises 20:56:22 0° 179° (S) 2,894 7.3 -17.9°
Reaches altitude 10° 20:58:36 10° 177° (S) 1,989 6.4 -17.4°
Maximum altitude 21:02:59 69° 94° (E) 665 3.9 -16.4°
Drops below altitude 10° 21:07:21 10° 10° (N) 1,983 6.0 -15.4°
Sets 21:09:35 0° 8° (N) 2,886 6.9 -14.9°
